Weather History for Anaktuvuk Pass, AK

Change the Weather History Date:

Sunday, December 9, 2012

  Actual Average Record
Temperature  
Mean Temperature -27 °F -  
Max Temperature -23 °F -2 °F 33 °F (2005)
Min Temperature -31 °F -11 °F -31 °F (1999)
Degree Days  
Heating Degree Days 92    
Moisture  
Dew Point -    
Average Humidity    
Maximum Humidity    
Minimum Humidity    
Precipitation  
Precipitation 0.00 in - - ()
Sea Level Pressure  
Sea Level Pressure 29.53 in    
Wind  
Wind Speed 4 mph (North)    
Max Wind Speed 7 mph    
Max Gust Speed -    
Visibility 10 miles    
Events      
Averages and records for this station are not official NWS values.
T = Trace of Precipitation, MM = Missing Value Source: NWS Daily Summary

Daily Weather History Graph

Daily Weather History Graph

Search for Another Location

Airport:

Trip Planner

Search our weather history database for the weather conditions in past years. The results will help you decide how hot, cold, wet, or windy it might be!

Date:

Astronomy

Dec. 09, 2012 Rise Set
Actual Time 12:27 PM AKST 1:32 PM AKST
Civil Twilight 10:13 AM AKST 3:45 PM AKST
Nautical Twilight 8:45 AM AKST 5:13 PM AKST
Astronomical Twilight 7:34 AM AKST 6:24 PM AKST
Moon 5:38 AM AKST (12/9) 1:09 PM AKST (12/9)
Length of Visible Light 5h 32m
Length of Day
1h 04m
Waning Crescent, 17% of the Moon is Illuminated
Dec 9
Waning Crescent
Dec 12
New
Dec 19
First Quarter
Dec 28
Full
Jan 4
Last Quarter

Hourly Weather History & Observations

Time (AKST) Temp. Windchill Dew Point Humidity Pressure Visibility Wind Dir Wind Speed Gust Speed Precip Events Conditions
12:16 AM -29.2 °F -44.0 °F - N/A% 29.61 in 10.0 mi North 4.6 mph - N/A   Clear
12:36 AM -25.6 °F -39.8 °F - N/A% 29.60 in 10.0 mi North 4.6 mph - N/A   Clear
12:56 AM -25.6 °F -37.1 °F - N/A% 29.59 in 10.0 mi North 3.5 mph - N/A   Clear
1:16 AM -25.6 °F -41.9 °F - N/A% 29.59 in 10.0 mi NNW 5.8 mph - N/A   Clear
1:36 AM -23.8 °F -37.7 °F - N/A% 29.57 in 10.0 mi North 4.6 mph - N/A   Clear
1:56 AM -25.6 °F -43.8 °F - N/A% 29.57 in 10.0 mi North 6.9 mph - N/A   Clear
2:16 AM -27.4 °F -39.2 °F - N/A% 29.57 in 10.0 mi North 3.5 mph - N/A   Clear
2:36 AM -27.4 °F -41.9 °F - N/A% 29.57 in 10.0 mi North 4.6 mph - N/A   Clear
2:56 AM -25.6 °F -39.8 °F - N/A% 29.56 in 10.0 mi NNW 4.6 mph - N/A   Clear
3:16 AM -29.2 °F -44.0 °F - N/A% 29.56 in 10.0 mi North 4.6 mph - N/A   Clear
3:36 AM -27.4 °F -39.2 °F - N/A% 29.55 in 10.0 mi North 3.5 mph - N/A   Clear
3:56 AM -29.2 °F -44.0 °F - N/A% 29.54 in 10.0 mi North 4.6 mph - N/A   Clear
4:16 AM -29.2 °F -44.0 °F - N/A% 29.53 in 10.0 mi North 4.6 mph - N/A   Clear
4:36 AM -29.2 °F -44.0 °F - N/A% 29.53 in 10.0 mi North 4.6 mph - N/A   Clear
4:56 AM -27.4 °F -41.9 °F - N/A% 29.53 in 10.0 mi North 4.6 mph - N/A   Clear
5:16 AM -27.4 °F -39.2 °F - N/A% 29.53 in 10.0 mi North 3.5 mph - N/A   Clear
5:36 AM -27.4 °F -41.9 °F - N/A% 29.52 in 10.0 mi North 4.6 mph - N/A   Clear
5:56 AM -27.4 °F -39.2 °F - N/A% 29.52 in 10.0 mi NNW 3.5 mph - N/A   Clear
6:16 AM -29.2 °F - - N/A% 29.52 in 10.0 mi Calm Calm - N/A   Clear
6:36 AM -31.0 °F - - N/A% 29.52 in 10.0 mi Calm Calm - N/A   Clear
6:56 AM -29.2 °F - - N/A% 29.51 in 10.0 mi Calm Calm - N/A   Clear
7:16 AM -29.2 °F - - N/A% 29.50 in 10.0 mi Calm Calm - N/A   Clear
7:36 AM -29.2 °F -41.2 °F - N/A% 29.50 in 10.0 mi NNW 3.5 mph - N/A   Clear
7:56 AM -29.2 °F -44.0 °F - N/A% 29.50 in 10.0 mi North 4.6 mph - N/A   Clear
8:16 AM -29.2 °F -44.0 °F - N/A% 29.50 in 10.0 mi North 4.6 mph - N/A   Clear
8:36 AM -31.0 °F -48.4 °F - N/A% 29.50 in 10.0 mi North 5.8 mph - N/A   Clear
8:56 AM -27.4 °F -44.1 °F - N/A% 29.50 in 10.0 mi North 5.8 mph - N/A   Clear
9:16 AM -29.2 °F -44.0 °F - N/A% 29.49 in 10.0 mi North 4.6 mph - N/A   Clear
9:36 AM -29.2 °F -44.0 °F - N/A% 29.50 in 9.0 mi North 4.6 mph - N/A   Clear
9:56 AM -29.2 °F -46.2 °F - N/A% 29.50 in 9.0 mi North 5.8 mph - N/A   Clear
10:16 AM -27.4 °F -41.9 °F - N/A% 29.50 in 10.0 mi North 4.6 mph - N/A   Clear
10:36 AM -29.2 °F -44.0 °F - N/A% 29.50 in 8.0 mi North 4.6 mph - N/A   Clear
10:56 AM -29.2 °F - - N/A% 29.51 in 10.0 mi Calm Calm - N/A   Clear
11:16 AM -29.2 °F -41.2 °F - N/A% 29.51 in 10.0 mi NNE 3.5 mph - N/A   Clear
11:36 AM -29.2 °F -44.0 °F - N/A% 29.51 in 10.0 mi NNE 4.6 mph - N/A   Clear
11:56 AM -29.2 °F -41.2 °F - N/A% 29.51 in 10.0 mi North 3.5 mph - N/A   Clear
12:16 PM -31.0 °F - - N/A% 29.52 in 9.0 mi Calm Calm - N/A   Clear
12:36 PM -31.0 °F - - N/A% 29.52 in 8.0 mi Calm Calm - N/A   Clear
12:56 PM -31.0 °F -46.1 °F - N/A% 29.51 in 9.0 mi North 4.6 mph - N/A   Clear
1:16 PM -29.2 °F -46.2 °F - N/A% 29.51 in 10.0 mi NNW 5.8 mph - N/A   Clear
1:36 PM -31.0 °F - - N/A% 29.51 in 10.0 mi Calm Calm - N/A   Clear
1:56 PM -31.0 °F -43.3 °F - N/A% 29.51 in 10.0 mi North 3.5 mph - N/A   Clear
2:16 PM -29.2 °F -41.2 °F - N/A% 29.51 in 10.0 mi NNE 3.5 mph - N/A   Clear
2:36 PM -29.2 °F - - N/A% 29.51 in 9.0 mi Calm Calm - N/A   Clear
2:56 PM -29.2 °F - - N/A% 29.51 in 10.0 mi Calm Calm - N/A   Clear
3:16 PM -27.4 °F - - N/A% 29.51 in 8.0 mi Calm Calm - N/A   Clear
3:36 PM -29.2 °F -41.2 °F - N/A% 29.51 in 10.0 mi NNE 3.5 mph - N/A   Clear
3:56 PM -29.2 °F -44.0 °F - N/A% 29.51 in 9.0 mi North 4.6 mph - N/A   Clear
4:16 PM -27.4 °F -44.1 °F - N/A% 29.51 in 10.0 mi North 5.8 mph - N/A   Clear
4:36 PM -29.2 °F -46.2 °F - N/A% 29.51 in 10.0 mi North 5.8 mph - N/A   Clear
4:56 PM -27.4 °F -39.2 °F - N/A% 29.51 in 10.0 mi North 3.5 mph - N/A   Clear
5:16 PM -29.2 °F -46.2 °F - N/A% 29.52 in 10.0 mi North 5.8 mph - N/A   Clear
5:36 PM -31.0 °F -43.3 °F - N/A% 29.51 in 9.0 mi North 3.5 mph - N/A   Clear
5:56 PM -29.2 °F -44.0 °F - N/A% 29.51 in 10.0 mi North 4.6 mph - N/A   Clear
6:16 PM -29.2 °F -44.0 °F - N/A% 29.52 in 10.0 mi North 4.6 mph - N/A   Clear
6:36 PM -27.4 °F -41.9 °F - N/A% 29.52 in 10.0 mi North 4.6 mph - N/A   Clear
6:56 PM -27.4 °F -41.9 °F - N/A% 29.52 in 10.0 mi North 4.6 mph - N/A   Clear
7:16 PM -29.2 °F -46.2 °F - N/A% 29.53 in 10.0 mi North 5.8 mph - N/A   Clear
7:36 PM -27.4 °F -41.9 °F - N/A% 29.53 in 10.0 mi North 4.6 mph - N/A   Clear
7:56 PM -29.2 °F -44.0 °F - N/A% 29.53 in 10.0 mi North 4.6 mph - N/A   Clear
8:16 PM -29.2 °F -44.0 °F - N/A% 29.53 in 10.0 mi North 4.6 mph - N/A   Clear
8:36 PM -27.4 °F -45.9 °F - N/A% 29.53 in 10.0 mi North 6.9 mph - N/A   Clear
8:56 PM -27.4 °F -41.9 °F - N/A% 29.53 in 10.0 mi North 4.6 mph - N/A   Clear
9:16 PM -29.2 °F - - N/A% 29.53 in 9.0 mi Calm Calm - N/A   Clear
9:36 PM -31.0 °F - - N/A% 29.52 in 9.0 mi Calm Calm - N/A   Clear
9:56 PM -27.4 °F -41.9 °F - N/A% 29.52 in 8.0 mi North 4.6 mph - N/A   Clear
10:16 PM -27.4 °F -44.1 °F - N/A% 29.52 in 10.0 mi North 5.8 mph - N/A   Clear
10:36 PM -29.2 °F -44.0 °F - N/A% 29.53 in 10.0 mi NNW 4.6 mph - N/A   Clear
10:56 PM -27.4 °F -39.2 °F - N/A% 29.53 in 10.0 mi North 3.5 mph - N/A   Clear
11:16 PM -29.2 °F -41.2 °F - N/A% 29.53 in 10.0 mi North 3.5 mph - N/A   Clear
11:56 PM -29.2 °F - - N/A% 29.54 in 10.0 mi Calm Calm - N/A   Clear